Year,Month,Day,Hour,Minute,Value (Times are PST for temperature in C)
2019,01,29,00,00,2.20
2019,01,29,00,01,2.10
2019,01,29,00,02,2.10
2019,01,29,00,03,2.00
2019,01,29,00,04,2.00
2019,01,29,00,05,2.00
2019,01,29,00,06,2.00
2019,01,29,00,07,2.00
2019,01,29,00,08,2.00
2019,01,29,00,09,2.00
2019,01,29,00,10,2.00
2019,01,29,00,11,2.00
2019,01,29,00,12,2.00
2019,01,29,00,13,2.00
2019,01,29,00,14,2.00
2019,01,29,00,15,2.00
2019,01,29,00,16,2.00
2019,01,29,00,17,1.90
2019,01,29,00,18,1.90
2019,01,29,00,19,1.90
2019,01,29,00,20,1.80
2019,01,29,00,21,1.80
2019,01,29,00,22,1.80
2019,01,29,00,23,1.80
2019,01,29,00,24,1.80
2019,01,29,00,25,1.80
2019,01,29,00,26,1.80
2019,01,29,00,27,1.80
2019,01,29,00,28,1.80
2019,01,29,00,29,1.80
2019,01,29,00,30,1.80
2019,01,29,00,31,1.80
2019,01,29,00,32,1.80
2019,01,29,00,33,1.80
2019,01,29,00,34,1.80
2019,01,29,00,35,1.80
2019,01,29,00,36,1.80
2019,01,29,00,37,1.70
2019,01,29,00,38,1.70
2019,01,29,00,39,1.70
2019,01,29,00,40,1.70
2019,01,29,00,41,1.70
2019,01,29,00,42,1.70
2019,01,29,00,43,1.60
2019,01,29,00,44,1.60
2019,01,29,00,45,1.60
2019,01,29,00,46,1.50
2019,01,29,00,47,1.50
2019,01,29,00,48,1.50
2019,01,29,00,49,1.60
2019,01,29,00,50,1.60
2019,01,29,00,51,1.60
2019,01,29,00,52,1.60
2019,01,29,00,53,1.60
2019,01,29,00,54,1.60
2019,01,29,00,55,1.60
2019,01,29,00,56,1.60
2019,01,29,00,57,1.60
2019,01,29,00,58,1.60
2019,01,29,00,59,1.50
2019,01,29,01,00,1.50
2019,01,29,01,01,1.40
2019,01,29,01,02,1.40
2019,01,29,01,03,1.40
2019,01,29,01,04,1.30
2019,01,29,01,05,1.30
2019,01,29,01,06,1.30
2019,01,29,01,07,1.30
2019,01,29,01,08,1.30
2019,01,29,01,09,1.30
2019,01,29,01,10,1.30
2019,01,29,01,11,1.30
2019,01,29,01,12,1.30
2019,01,29,01,13,1.30
2019,01,29,01,14,1.30
2019,01,29,01,15,1.40
2019,01,29,01,16,1.40
2019,01,29,01,17,1.50
2019,01,29,01,18,1.50
2019,01,29,01,19,1.60
2019,01,29,01,20,1.60
2019,01,29,01,21,1.70
2019,01,29,01,22,1.70
2019,01,29,01,23,1.70
2019,01,29,01,24,1.80
2019,01,29,01,25,1.80
2019,01,29,01,26,1.70
2019,01,29,01,27,1.70
2019,01,29,01,28,1.60
2019,01,29,01,29,1.50
2019,01,29,01,30,1.50
2019,01,29,01,31,1.40
2019,01,29,01,32,1.30
2019,01,29,01,33,1.30
2019,01,29,01,34,1.20
2019,01,29,01,35,1.20
2019,01,29,01,36,1.20
2019,01,29,01,37,1.30
2019,01,29,01,38,1.30
2019,01,29,01,39,1.30
2019,01,29,01,40,1.30
2019,01,29,01,41,1.30
2019,01,29,01,42,1.30
2019,01,29,01,43,1.30
2019,01,29,01,44,1.30
2019,01,29,01,45,1.30
2019,01,29,01,46,1.20
2019,01,29,01,47,1.20
2019,01,29,01,48,1.20
2019,01,29,01,49,1.30
2019,01,29,01,50,1.30
2019,01,29,01,51,1.20
2019,01,29,01,52,1.20
2019,01,29,01,53,1.20
2019,01,29,01,54,1.20
2019,01,29,01,55,1.20
2019,01,29,01,56,1.30
2019,01,29,01,57,1.30
2019,01,29,01,58,1.30
2019,01,29,01,59,1.40
2019,01,29,02,00,1.40
2019,01,29,02,01,1.40
2019,01,29,02,02,1.50
2019,01,29,02,03,1.50
2019,01,29,02,04,1.50
2019,01,29,02,05,1.60
2019,01,29,02,06,1.60
2019,01,29,02,07,1.70
2019,01,29,02,08,1.70
2019,01,29,02,09,1.60
2019,01,29,02,10,1.60
2019,01,29,02,11,1.50
2019,01,29,02,12,1.50
2019,01,29,02,13,1.50
2019,01,29,02,14,1.50
2019,01,29,02,15,1.50
2019,01,29,02,16,1.50
2019,01,29,02,17,1.60
2019,01,29,02,18,1.60
2019,01,29,02,19,1.60
2019,01,29,02,20,1.60
2019,01,29,02,21,1.60
2019,01,29,02,22,1.60
2019,01,29,02,23,1.60
2019,01,29,02,24,1.50
2019,01,29,02,25,1.50
2019,01,29,02,26,1.50
2019,01,29,02,27,1.40
2019,01,29,02,28,1.40
2019,01,29,02,29,1.40
2019,01,29,02,30,1.40
2019,01,29,02,31,1.40
2019,01,29,02,32,1.40
2019,01,29,02,33,1.30
2019,01,29,02,34,1.30
2019,01,29,02,35,1.30
2019,01,29,02,36,1.30
2019,01,29,02,37,1.20
2019,01,29,02,38,1.20
2019,01,29,02,39,1.20
2019,01,29,02,40,1.20
2019,01,29,02,41,1.20
2019,01,29,02,42,1.20
2019,01,29,02,43,1.20
2019,01,29,02,44,1.20
2019,01,29,02,45,1.20
2019,01,29,02,46,1.20
2019,01,29,02,47,1.30
2019,01,29,02,48,1.30
2019,01,29,02,49,1.30
2019,01,29,02,50,1.30
2019,01,29,02,51,1.30
2019,01,29,02,52,1.20
2019,01,29,02,53,1.20
2019,01,29,02,54,1.20
2019,01,29,02,55,1.20
2019,01,29,02,56,1.10
2019,01,29,02,57,1.10
2019,01,29,02,58,1.10
2019,01,29,02,59,1.00
2019,01,29,03,00,0.90
2019,01,29,03,01,0.90
2019,01,29,03,02,0.90
2019,01,29,03,03,0.80
2019,01,29,03,04,0.80
2019,01,29,03,05,0.80
2019,01,29,03,06,0.80
2019,01,29,03,07,0.80
2019,01,29,03,08,0.80
2019,01,29,03,09,0.70
2019,01,29,03,10,0.70
2019,01,29,03,11,0.70
2019,01,29,03,12,0.70
2019,01,29,03,13,0.70
2019,01,29,03,14,0.70
2019,01,29,03,15,0.80
2019,01,29,03,16,0.80
2019,01,29,03,17,0.80
2019,01,29,03,18,0.80
2019,01,29,03,19,0.90
2019,01,29,03,20,0.90
2019,01,29,03,21,0.90
2019,01,29,03,22,0.90
2019,01,29,03,23,1.00
2019,01,29,03,24,1.00
2019,01,29,03,25,1.10
2019,01,29,03,26,1.20
2019,01,29,03,27,1.20
2019,01,29,03,28,1.20
2019,01,29,03,29,1.30
2019,01,29,03,30,1.30
2019,01,29,03,31,1.30
2019,01,29,03,32,1.30
2019,01,29,03,33,1.30
2019,01,29,03,34,1.30
2019,01,29,03,35,1.30
2019,01,29,03,36,1.30
2019,01,29,03,37,1.30
2019,01,29,03,38,1.30
2019,01,29,03,39,1.30
2019,01,29,03,40,1.30
2019,01,29,03,41,1.30
2019,01,29,03,42,1.30
2019,01,29,03,43,1.30
2019,01,29,03,44,1.30
2019,01,29,03,45,1.30
2019,01,29,03,46,1.30
2019,01,29,03,47,1.30
2019,01,29,03,48,1.40
2019,01,29,03,49,1.40
2019,01,29,03,50,1.50
2019,01,29,03,51,1.50
2019,01,29,03,52,1.60
2019,01,29,03,53,1.60
2019,01,29,03,54,1.60
2019,01,29,03,55,1.60
2019,01,29,03,56,1.60
2019,01,29,03,57,1.60
2019,01,29,03,58,1.70
2019,01,29,03,59,1.70
2019,01,29,04,00,1.70
2019,01,29,04,01,1.70
2019,01,29,04,02,1.70
2019,01,29,04,03,1.70
2019,01,29,04,04,1.70
2019,01,29,04,05,1.70
2019,01,29,04,06,1.60
2019,01,29,04,07,1.60
2019,01,29,04,08,1.60
2019,01,29,04,09,1.60
2019,01,29,04,10,1.50
2019,01,29,04,11,1.40
2019,01,29,04,12,1.40
2019,01,29,04,13,1.30
2019,01,29,04,14,1.30
2019,01,29,04,15,1.30
2019,01,29,04,16,1.30
2019,01,29,04,17,1.20
2019,01,29,04,18,1.20
2019,01,29,04,19,1.20
2019,01,29,04,20,1.20
2019,01,29,04,21,1.20
2019,01,29,04,22,1.10
2019,01,29,04,23,1.10
2019,01,29,04,24,1.00
2019,01,29,04,25,1.00
2019,01,29,04,26,1.00
2019,01,29,04,27,0.90
2019,01,29,04,28,0.90
2019,01,29,04,29,0.90
2019,01,29,04,30,0.90
2019,01,29,04,31,0.90
2019,01,29,04,32,0.90
2019,01,29,04,33,0.90
2019,01,29,04,34,0.90
2019,01,29,04,35,0.90
2019,01,29,04,36,0.80
2019,01,29,04,37,0.90
2019,01,29,04,38,0.90
2019,01,29,04,39,0.90
2019,01,29,04,40,0.90
2019,01,29,04,41,0.90
2019,01,29,04,42,0.90
2019,01,29,04,43,0.90
2019,01,29,04,44,1.00
2019,01,29,04,45,1.00
2019,01,29,04,46,1.00
2019,01,29,04,47,1.10
2019,01,29,04,48,1.10
2019,01,29,04,49,1.10
2019,01,29,04,50,1.10
2019,01,29,04,51,1.10
2019,01,29,04,52,1.10
2019,01,29,04,53,1.10
2019,01,29,04,54,1.10
2019,01,29,04,55,1.10
2019,01,29,04,56,1.10
2019,01,29,04,57,1.10
2019,01,29,04,58,1.10
2019,01,29,04,59,1.10
2019,01,29,05,00,1.10
2019,01,29,05,01,1.10
2019,01,29,05,02,1.10
2019,01,29,05,03,1.10
2019,01,29,05,04,1.10
2019,01,29,05,05,1.10
2019,01,29,05,06,1.00
2019,01,29,05,07,1.00
2019,01,29,05,08,1.00
2019,01,29,05,09,1.00
2019,01,29,05,10,1.00
2019,01,29,05,11,1.00
2019,01,29,05,12,1.00
2019,01,29,05,13,1.00
2019,01,29,05,14,1.00
2019,01,29,05,15,0.90
2019,01,29,05,16,0.90
2019,01,29,05,17,1.00
2019,01,29,05,18,0.90
2019,01,29,05,19,0.90
2019,01,29,05,20,0.90
2019,01,29,05,21,0.90
2019,01,29,05,22,0.90
2019,01,29,05,23,0.90
2019,01,29,05,24,0.80
2019,01,29,05,25,0.80
2019,01,29,05,26,0.80
2019,01,29,05,27,0.80
2019,01,29,05,28,0.80
2019,01,29,05,29,0.80
2019,01,29,05,30,0.80
2019,01,29,05,31,0.80
2019,01,29,05,32,0.80
2019,01,29,05,33,0.80
2019,01,29,05,34,0.80
2019,01,29,05,35,0.80
2019,01,29,05,36,0.80
2019,01,29,05,37,0.80
2019,01,29,05,38,0.80
2019,01,29,05,39,0.80
2019,01,29,05,40,0.80
2019,01,29,05,41,0.80
2019,01,29,05,42,0.80
2019,01,29,05,43,0.80
2019,01,29,05,44,0.80
2019,01,29,05,45,0.80
2019,01,29,05,46,0.80
2019,01,29,05,47,0.80
2019,01,29,05,48,0.80
2019,01,29,05,49,0.80
2019,01,29,05,50,0.80
2019,01,29,05,51,0.80
2019,01,29,05,52,0.80
2019,01,29,05,53,0.80
2019,01,29,05,54,0.80
2019,01,29,05,55,0.80
2019,01,29,05,56,0.80
2019,01,29,05,57,0.80
2019,01,29,05,58,0.80
2019,01,29,05,59,0.80
2019,01,29,06,00,0.80
2019,01,29,06,01,0.70
2019,01,29,06,02,0.70
2019,01,29,06,03,0.70
2019,01,29,06,04,0.70
2019,01,29,06,05,0.70
2019,01,29,06,06,0.70
2019,01,29,06,07,0.70
2019,01,29,06,08,0.60
2019,01,29,06,09,0.60
2019,01,29,06,10,0.50
2019,01,29,06,11,0.50
2019,01,29,06,12,0.50
2019,01,29,06,13,0.50
2019,01,29,06,14,0.50
2019,01,29,06,15,0.50
2019,01,29,06,16,0.50
2019,01,29,06,17,0.60
2019,01,29,06,18,0.60
2019,01,29,06,19,0.70
2019,01,29,06,20,0.70
2019,01,29,06,21,0.80
2019,01,29,06,22,0.80
2019,01,29,06,23,0.80
2019,01,29,06,24,0.80
2019,01,29,06,25,0.80
2019,01,29,06,26,0.90
2019,01,29,06,27,0.90
2019,01,29,06,28,0.90
2019,01,29,06,29,1.00
2019,01,29,06,30,1.00
2019,01,29,06,31,1.10
2019,01,29,06,32,1.20
2019,01,29,06,33,1.20
2019,01,29,06,34,1.30
2019,01,29,06,35,1.30
2019,01,29,06,36,1.30
2019,01,29,06,37,1.20
2019,01,29,06,38,1.20
2019,01,29,06,39,1.10
2019,01,29,06,40,1.00
2019,01,29,06,41,0.90
2019,01,29,06,42,0.80
2019,01,29,06,43,0.80
2019,01,29,06,44,0.80
2019,01,29,06,45,0.70
2019,01,29,06,46,0.70
2019,01,29,06,47,0.70
2019,01,29,06,48,0.70
2019,01,29,06,49,0.70
2019,01,29,06,50,0.70
2019,01,29,06,51,0.60
2019,01,29,06,52,0.60
2019,01,29,06,53,0.60
2019,01,29,06,54,0.50
2019,01,29,06,55,0.50
2019,01,29,06,56,0.50
2019,01,29,06,57,0.50
2019,01,29,06,58,0.60
2019,01,29,06,59,0.60
2019,01,29,07,00,0.60
2019,01,29,07,01,0.50
2019,01,29,07,02,0.50
2019,01,29,07,03,0.50
2019,01,29,07,04,0.50
2019,01,29,07,05,0.50
2019,01,29,07,06,0.50
2019,01,29,07,07,0.40
2019,01,29,07,08,0.40
2019,01,29,07,09,0.50
2019,01,29,07,10,0.50
2019,01,29,07,11,0.50
2019,01,29,07,12,0.50
2019,01,29,07,13,0.50
2019,01,29,07,14,0.50
2019,01,29,07,15,0.50
2019,01,29,07,16,0.50
2019,01,29,07,17,0.50
2019,01,29,07,18,0.50
2019,01,29,07,19,0.50
2019,01,29,07,20,0.50
2019,01,29,07,21,0.50
2019,01,29,07,22,0.50
2019,01,29,07,23,0.60
2019,01,29,07,24,0.60
2019,01,29,07,25,0.60
2019,01,29,07,26,0.60
2019,01,29,07,27,0.60
2019,01,29,07,28,0.60
2019,01,29,07,29,0.60
2019,01,29,07,30,0.60
2019,01,29,07,31,0.60
2019,01,29,07,32,0.60
2019,01,29,07,33,0.60
2019,01,29,07,34,0.60
2019,01,29,07,35,0.60
2019,01,29,07,36,0.60
2019,01,29,07,37,0.70
2019,01,29,07,38,0.70
2019,01,29,07,39,0.70
2019,01,29,07,40,0.70
2019,01,29,07,41,0.70
2019,01,29,07,42,0.70
2019,01,29,07,43,0.70
2019,01,29,07,44,0.70
2019,01,29,07,45,0.60
2019,01,29,07,46,0.70
2019,01,29,07,47,0.70
2019,01,29,07,48,0.70
2019,01,29,07,49,0.60
2019,01,29,07,50,0.60
2019,01,29,07,51,0.60
2019,01,29,07,52,0.60
2019,01,29,07,53,0.50
2019,01,29,07,54,0.50
2019,01,29,07,55,0.50
2019,01,29,07,56,0.40
2019,01,29,07,57,0.40
2019,01,29,07,58,0.40
2019,01,29,07,59,0.50
2019,01,29,08,00,0.50
2019,01,29,08,01,0.50
2019,01,29,08,02,0.50
2019,01,29,08,03,0.50
2019,01,29,08,04,0.60
2019,01,29,08,05,0.60
2019,01,29,08,06,0.50
2019,01,29,08,07,0.50
2019,01,29,08,08,0.60
2019,01,29,08,09,0.60
2019,01,29,08,10,0.60
2019,01,29,08,11,0.60
2019,01,29,08,12,0.60
2019,01,29,08,13,0.60
2019,01,29,08,14,0.70
2019,01,29,08,15,0.70
2019,01,29,08,16,0.80
2019,01,29,08,17,0.80
2019,01,29,08,18,0.80
2019,01,29,08,19,0.80
2019,01,29,08,20,0.80
2019,01,29,08,21,0.80
2019,01,29,08,22,0.90
2019,01,29,08,23,0.90
2019,01,29,08,24,0.90
2019,01,29,08,25,1.00
2019,01,29,08,26,1.00
2019,01,29,08,27,1.00
2019,01,29,08,28,1.00
2019,01,29,08,29,1.10
2019,01,29,08,30,1.10
2019,01,29,08,31,1.10
2019,01,29,08,32,1.10
2019,01,29,08,33,1.10
2019,01,29,08,34,1.20
2019,01,29,08,35,1.20
2019,01,29,08,36,1.20
2019,01,29,08,37,1.20
2019,01,29,08,38,1.20
2019,01,29,08,39,1.30
2019,01,29,08,40,1.30
2019,01,29,08,41,1.30
2019,01,29,08,42,1.40
2019,01,29,08,43,1.40
2019,01,29,08,44,1.40
2019,01,29,08,45,1.50
2019,01,29,08,46,1.50
2019,01,29,08,47,1.50
2019,01,29,08,48,1.60
2019,01,29,08,49,1.60
2019,01,29,08,50,1.60
2019,01,29,08,51,1.70
2019,01,29,08,52,1.70
2019,01,29,08,53,1.70
2019,01,29,08,54,1.70
2019,01,29,08,55,1.70
2019,01,29,08,56,1.80
2019,01,29,08,57,1.80
2019,01,29,08,58,1.80
2019,01,29,08,59,1.80
2019,01,29,09,00,1.80
2019,01,29,09,01,1.90
2019,01,29,09,02,1.90
2019,01,29,09,03,1.90
2019,01,29,09,04,2.00
2019,01,29,09,05,2.00
2019,01,29,09,06,2.00
2019,01,29,09,07,2.10
2019,01,29,09,08,2.10
2019,01,29,09,09,2.10
2019,01,29,09,10,2.10
2019,01,29,09,11,2.20
2019,01,29,09,12,2.20
2019,01,29,09,13,2.20
2019,01,29,09,14,2.20
2019,01,29,09,15,2.20
2019,01,29,09,16,2.30
2019,01,29,09,17,2.30
2019,01,29,09,18,2.30
2019,01,29,09,19,2.40
2019,01,29,09,20,2.40
2019,01,29,09,21,2.50
2019,01,29,09,22,2.50
2019,01,29,09,23,2.60
2019,01,29,09,24,2.60
2019,01,29,09,25,2.60
2019,01,29,09,26,2.60
2019,01,29,09,27,2.60
2019,01,29,09,28,2.60
2019,01,29,09,29,2.70
2019,01,29,09,30,2.70
2019,01,29,09,31,2.70
2019,01,29,09,32,2.70
2019,01,29,09,33,2.70
2019,01,29,09,34,2.80
2019,01,29,09,35,2.80
2019,01,29,09,36,2.90
2019,01,29,09,37,2.90
2019,01,29,09,38,2.90
2019,01,29,09,39,3.00
2019,01,29,09,40,3.00
2019,01,29,09,41,3.10
2019,01,29,09,42,3.10
2019,01,29,09,43,3.10
2019,01,29,09,44,3.20
2019,01,29,09,45,3.20
2019,01,29,09,46,3.20
2019,01,29,09,47,3.30
2019,01,29,09,48,3.30
2019,01,29,09,49,3.30
2019,01,29,09,50,3.30
2019,01,29,09,51,3.40
2019,01,29,09,52,3.40
2019,01,29,09,53,3.40
2019,01,29,09,54,3.50
2019,01,29,09,55,3.50
2019,01,29,09,56,3.50
2019,01,29,09,57,3.60
2019,01,29,09,58,3.60
2019,01,29,09,59,3.60
2019,01,29,10,00,3.70
2019,01,29,10,01,3.70
2019,01,29,10,02,3.70
2019,01,29,10,03,3.70
2019,01,29,10,04,3.80
2019,01,29,10,05,3.80
2019,01,29,10,06,3.80
2019,01,29,10,07,3.90
2019,01,29,10,08,3.90
2019,01,29,10,09,4.00
2019,01,29,10,10,4.00
2019,01,29,10,11,4.10
2019,01,29,10,12,4.10
2019,01,29,10,13,4.10
2019,01,29,10,14,4.20
2019,01,29,10,15,4.20
2019,01,29,10,16,4.20
2019,01,29,10,17,4.30
2019,01,29,10,18,4.30
2019,01,29,10,19,4.30
2019,01,29,10,20,4.40
2019,01,29,10,21,4.50
2019,01,29,10,22,4.50
2019,01,29,10,23,4.60
2019,01,29,10,24,4.60
2019,01,29,10,25,4.70
2019,01,29,10,26,4.70
2019,01,29,10,27,4.80
2019,01,29,10,28,4.80
2019,01,29,10,29,4.80
2019,01,29,10,30,4.90
2019,01,29,10,31,5.00
2019,01,29,10,32,5.00
2019,01,29,10,33,5.10
2019,01,29,10,34,5.20
2019,01,29,10,35,5.20
2019,01,29,10,36,5.20
2019,01,29,10,37,5.20
2019,01,29,10,38,5.30
2019,01,29,10,39,5.30
2019,01,29,10,40,5.30
2019,01,29,10,41,5.40
2019,01,29,10,42,5.40
2019,01,29,10,43,5.40
2019,01,29,10,44,5.50
2019,01,29,10,45,5.60
2019,01,29,10,46,5.60
2019,01,29,10,47,5.70
2019,01,29,10,48,5.70
2019,01,29,10,49,5.80
2019,01,29,10,50,5.90
2019,01,29,10,51,6.00
2019,01,29,10,52,6.10
2019,01,29,10,53,6.20
2019,01,29,10,54,6.30
2019,01,29,10,55,6.30
2019,01,29,10,56,6.40
2019,01,29,10,57,6.50
2019,01,29,10,58,6.60
2019,01,29,10,59,6.70
2019,01,29,11,00,6.70
2019,01,29,11,01,6.80
2019,01,29,11,02,6.90
2019,01,29,11,03,6.90
2019,01,29,11,04,7.00
2019,01,29,11,05,7.00
2019,01,29,11,06,7.00
2019,01,29,11,07,7.10
2019,01,29,11,08,7.10
2019,01,29,11,09,7.20
2019,01,29,11,10,7.20
2019,01,29,11,11,7.20
2019,01,29,11,12,7.30
2019,01,29,11,13,7.30
2019,01,29,11,14,7.30
2019,01,29,11,15,7.30
2019,01,29,11,16,7.30
2019,01,29,11,17,7.30
2019,01,29,11,18,7.30
2019,01,29,11,19,7.30
2019,01,29,11,20,7.30
2019,01,29,11,21,7.20
2019,01,29,11,22,7.20
2019,01,29,11,23,7.20
2019,01,29,11,24,7.20
2019,01,29,11,25,7.20
2019,01,29,11,26,7.20
2019,01,29,11,27,7.20
2019,01,29,11,28,7.20
2019,01,29,11,29,7.20
2019,01,29,11,30,7.20
2019,01,29,11,31,7.20
2019,01,29,11,32,7.20
2019,01,29,11,33,7.20
2019,01,29,11,34,7.20
2019,01,29,11,35,7.20
2019,01,29,11,36,7.20
2019,01,29,11,37,7.20
2019,01,29,11,38,7.20
2019,01,29,11,39,7.20
2019,01,29,11,40,7.20
2019,01,29,11,41,7.20
2019,01,29,11,42,7.20
2019,01,29,11,43,7.20
2019,01,29,11,44,7.20
2019,01,29,11,45,7.20
2019,01,29,11,46,7.20
2019,01,29,11,47,7.20
2019,01,29,11,48,7.20
2019,01,29,11,49,7.20
2019,01,29,11,50,7.20
2019,01,29,11,51,7.20
2019,01,29,11,52,7.20
2019,01,29,11,53,7.20
2019,01,29,11,54,7.20
2019,01,29,11,55,7.20
2019,01,29,11,56,7.20
2019,01,29,11,57,7.20
2019,01,29,11,58,7.20
2019,01,29,11,59,7.20
2019,01,29,12,00,7.20
2019,01,29,12,01,7.20
2019,01,29,12,02,7.20
2019,01,29,12,03,7.20
2019,01,29,12,04,7.20
2019,01,29,12,05,7.20
2019,01,29,12,06,7.20
2019,01,29,12,07,7.20
2019,01,29,12,08,7.20
2019,01,29,12,09,7.30
2019,01,29,12,10,7.30
2019,01,29,12,11,7.30
2019,01,29,12,12,7.30
2019,01,29,12,13,7.30
2019,01,29,12,14,7.30
2019,01,29,12,15,7.30
2019,01,29,12,16,7.30
2019,01,29,12,17,7.30
2019,01,29,12,18,7.30
2019,01,29,12,19,7.30
2019,01,29,12,20,7.30
2019,01,29,12,21,7.30
2019,01,29,12,22,7.30
2019,01,29,12,23,7.30
2019,01,29,12,24,7.30
2019,01,29,12,25,7.40
2019,01,29,12,26,7.40
2019,01,29,12,27,7.40
2019,01,29,12,28,7.40
2019,01,29,12,29,7.40
2019,01,29,12,30,7.40
2019,01,29,12,31,7.40
2019,01,29,12,32,7.40
2019,01,29,12,33,7.40
2019,01,29,12,34,7.40
2019,01,29,12,35,7.50
2019,01,29,12,36,7.50
2019,01,29,12,37,7.50
2019,01,29,12,38,7.50
2019,01,29,12,39,7.50
2019,01,29,12,40,7.50
2019,01,29,12,41,7.60
2019,01,29,12,42,7.60
2019,01,29,12,43,7.60
2019,01,29,12,44,7.60
2019,01,29,12,45,7.60
2019,01,29,12,46,7.60
2019,01,29,12,47,7.60
2019,01,29,12,48,7.70
2019,01,29,12,49,7.70
2019,01,29,12,50,7.80
2019,01,29,12,51,7.90
2019,01,29,12,52,7.90
2019,01,29,12,53,7.90
2019,01,29,12,54,7.90
2019,01,29,12,55,7.90
2019,01,29,12,56,7.90
2019,01,29,12,57,7.90
2019,01,29,12,58,7.80
2019,01,29,12,59,7.80
2019,01,29,13,00,7.90
2019,01,29,13,01,7.90
2019,01,29,13,02,7.90
2019,01,29,13,03,7.90
2019,01,29,13,04,7.90
2019,01,29,13,05,7.90
2019,01,29,13,06,8.00
2019,01,29,13,07,8.00
2019,01,29,13,08,8.00
2019,01,29,13,09,8.00
2019,01,29,13,10,8.00
2019,01,29,13,11,8.00
2019,01,29,13,12,7.90
2019,01,29,13,13,7.90
2019,01,29,13,14,7.90
2019,01,29,13,15,7.90
2019,01,29,13,16,7.90
2019,01,29,13,17,7.90
2019,01,29,13,18,7.90
2019,01,29,13,19,7.90
2019,01,29,13,20,7.90
2019,01,29,13,21,7.80
2019,01,29,13,22,7.80
2019,01,29,13,23,7.90
2019,01,29,13,24,7.90
2019,01,29,13,25,8.00
2019,01,29,13,26,8.00
2019,01,29,13,27,8.10
2019,01,29,13,28,8.10
2019,01,29,13,29,8.10
2019,01,29,13,30,8.10
2019,01,29,13,31,8.10
2019,01,29,13,32,8.10
2019,01,29,13,33,8.10
2019,01,29,13,34,8.10
2019,01,29,13,35,8.20
2019,01,29,13,36,8.20
2019,01,29,13,37,8.20
2019,01,29,13,38,8.20
2019,01,29,13,39,8.20
2019,01,29,13,40,8.10
2019,01,29,13,41,8.10
2019,01,29,13,42,8.00
2019,01,29,13,43,7.90
2019,01,29,13,44,7.90
2019,01,29,13,45,7.90
2019,01,29,13,46,7.80
2019,01,29,13,47,7.90
2019,01,29,13,48,7.90
2019,01,29,13,49,7.90
2019,01,29,13,50,7.90
2019,01,29,13,51,7.90
2019,01,29,13,52,7.90
2019,01,29,13,53,7.90
2019,01,29,13,54,8.00
2019,01,29,13,55,8.10
2019,01,29,13,56,8.10
2019,01,29,13,57,8.20
2019,01,29,13,58,8.10
2019,01,29,13,59,8.10
2019,01,29,14,00,8.10
2019,01,29,14,01,8.10
2019,01,29,14,02,8.10
2019,01,29,14,03,8.10
2019,01,29,14,04,8.10
2019,01,29,14,05,8.10
2019,01,29,14,06,8.00
2019,01,29,14,07,8.00
2019,01,29,14,08,8.00
2019,01,29,14,09,8.00
2019,01,29,14,10,8.00
2019,01,29,14,11,8.10
2019,01,29,14,12,8.10
2019,01,29,14,13,8.20
2019,01,29,14,14,8.20
2019,01,29,14,15,8.20
2019,01,29,14,16,8.20
2019,01,29,14,17,8.20
2019,01,29,14,18,8.20
2019,01,29,14,19,8.20
2019,01,29,14,20,8.20
2019,01,29,14,21,8.10
2019,01,29,14,22,8.10
2019,01,29,14,23,8.00
2019,01,29,14,24,8.00
2019,01,29,14,25,7.90
2019,01,29,14,26,8.00
2019,01,29,14,27,8.00
2019,01,29,14,28,8.10
2019,01,29,14,29,8.10
2019,01,29,14,30,8.10
2019,01,29,14,31,8.10
2019,01,29,14,32,8.10
2019,01,29,14,33,8.10
2019,01,29,14,34,8.10
2019,01,29,14,35,8.00
2019,01,29,14,36,8.00
2019,01,29,14,37,8.00
2019,01,29,14,38,8.00
2019,01,29,14,39,7.90
2019,01,29,14,40,7.90
2019,01,29,14,41,7.90
2019,01,29,14,42,7.90
2019,01,29,14,43,7.90
2019,01,29,14,44,8.00
2019,01,29,14,45,8.00
2019,01,29,14,46,8.10
2019,01,29,14,47,8.10
2019,01,29,14,48,8.20
2019,01,29,14,49,8.20
2019,01,29,14,50,8.20
2019,01,29,14,51,8.30
2019,01,29,14,52,8.30
2019,01,29,14,53,8.30
2019,01,29,14,54,8.40
2019,01,29,14,55,8.40
2019,01,29,14,56,8.40
2019,01,29,14,57,8.40
2019,01,29,14,58,8.40
2019,01,29,14,59,8.40
2019,01,29,15,00,8.40
2019,01,29,15,01,8.50
2019,01,29,15,02,8.50
2019,01,29,15,03,8.50
2019,01,29,15,04,8.50
2019,01,29,15,05,8.60
2019,01,29,15,06,8.60
2019,01,29,15,07,8.60
2019,01,29,15,08,8.60
2019,01,29,15,09,8.60
2019,01,29,15,10,8.60
2019,01,29,15,11,8.60
2019,01,29,15,12,8.60
2019,01,29,15,13,8.60
2019,01,29,15,14,8.60
2019,01,29,15,15,8.60
2019,01,29,15,16,8.60
2019,01,29,15,17,8.60
2019,01,29,15,18,8.60
2019,01,29,15,19,8.60
2019,01,29,15,20,8.70
2019,01,29,15,21,8.70
2019,01,29,15,22,8.70
2019,01,29,15,23,8.70
2019,01,29,15,24,8.70
2019,01,29,15,25,8.80
2019,01,29,15,26,8.80
2019,01,29,15,27,8.80
2019,01,29,15,28,8.90
2019,01,29,15,29,8.90
2019,01,29,15,30,8.90
2019,01,29,15,31,8.90
2019,01,29,15,32,8.90
2019,01,29,15,33,8.80
2019,01,29,15,34,8.80
2019,01,29,15,35,8.80
2019,01,29,15,36,8.70
2019,01,29,15,37,8.70
2019,01,29,15,38,8.70
2019,01,29,15,39,8.60
2019,01,29,15,40,8.60
2019,01,29,15,41,8.60
2019,01,29,15,42,8.50
2019,01,29,15,43,8.50
2019,01,29,15,44,8.50
2019,01,29,15,45,8.50
2019,01,29,15,46,8.50
2019,01,29,15,47,8.50
2019,01,29,15,48,8.50
2019,01,29,15,49,8.50
2019,01,29,15,50,8.50
2019,01,29,15,51,8.40
2019,01,29,15,52,8.40
2019,01,29,15,53,8.40
2019,01,29,15,54,8.40
2019,01,29,15,55,8.40
2019,01,29,15,56,8.40
2019,01,29,15,57,8.40
2019,01,29,15,58,8.30
2019,01,29,15,59,8.30
2019,01,29,16,00,8.30
2019,01,29,16,01,8.30
2019,01,29,16,02,8.30
2019,01,29,16,03,8.30
2019,01,29,16,04,8.30
2019,01,29,16,05,8.30
2019,01,29,16,06,8.30
2019,01,29,16,07,8.30
2019,01,29,16,08,8.20
2019,01,29,16,09,8.20
2019,01,29,16,10,8.20
2019,01,29,16,11,8.20
2019,01,29,16,12,8.20
2019,01,29,16,13,8.10
2019,01,29,16,14,8.10
2019,01,29,16,15,8.10
2019,01,29,16,16,8.10
2019,01,29,16,17,8.10
2019,01,29,16,18,8.10
2019,01,29,16,19,8.00
2019,01,29,16,20,8.00
2019,01,29,16,21,8.00
2019,01,29,16,22,8.00
2019,01,29,16,23,8.00
2019,01,29,16,24,7.90
2019,01,29,16,25,7.90
2019,01,29,16,26,7.90
2019,01,29,16,27,7.90
2019,01,29,16,28,7.90
2019,01,29,16,29,7.90
2019,01,29,16,30,7.90
2019,01,29,16,31,7.80
2019,01,29,16,32,7.80
2019,01,29,16,33,7.80
2019,01,29,16,34,7.80
2019,01,29,16,35,7.80
2019,01,29,16,36,7.80
2019,01,29,16,37,7.80
2019,01,29,16,38,7.80
2019,01,29,16,39,7.80
2019,01,29,16,40,7.80
2019,01,29,16,41,7.80
2019,01,29,16,42,7.80
2019,01,29,16,43,7.80
2019,01,29,16,44,7.80
2019,01,29,16,45,7.70
2019,01,29,16,46,7.70
2019,01,29,16,47,7.70
2019,01,29,16,48,7.70
2019,01,29,16,49,7.70
2019,01,29,16,50,7.60
2019,01,29,16,51,7.60
2019,01,29,16,52,7.60
2019,01,29,16,53,7.60
2019,01,29,16,54,7.50
2019,01,29,16,55,7.50
2019,01,29,16,56,7.40
2019,01,29,16,57,7.40
2019,01,29,16,58,7.40
2019,01,29,16,59,7.30
2019,01,29,17,00,7.30
2019,01,29,17,01,7.30
2019,01,29,17,02,7.30
2019,01,29,17,03,7.20
2019,01,29,17,04,7.20
2019,01,29,17,05,7.20
2019,01,29,17,06,7.20
2019,01,29,17,07,7.10
2019,01,29,17,08,7.10
2019,01,29,17,09,7.10
2019,01,29,17,10,7.10
2019,01,29,17,11,7.00
2019,01,29,17,12,7.00
2019,01,29,17,13,7.00
2019,01,29,17,14,6.90
2019,01,29,17,15,6.90
2019,01,29,17,16,6.80
2019,01,29,17,17,6.80
2019,01,29,17,18,6.80
2019,01,29,17,19,6.70
2019,01,29,17,20,6.70
2019,01,29,17,21,6.60
2019,01,29,17,22,6.60
2019,01,29,17,23,6.50
2019,01,29,17,24,6.50
2019,01,29,17,25,6.50
2019,01,29,17,26,6.40
2019,01,29,17,27,6.40
2019,01,29,17,28,6.40
2019,01,29,17,29,6.40
2019,01,29,17,30,6.40
2019,01,29,17,31,6.30
2019,01,29,17,32,6.30
2019,01,29,17,33,6.30
2019,01,29,17,34,6.30
2019,01,29,17,35,6.20
2019,01,29,17,36,6.20
2019,01,29,17,37,6.20
2019,01,29,17,38,6.20
2019,01,29,17,39,6.10
2019,01,29,17,40,6.10
2019,01,29,17,41,6.00
2019,01,29,17,42,6.00
2019,01,29,17,43,5.90
2019,01,29,17,44,5.90
2019,01,29,17,45,5.80
2019,01,29,17,46,5.80
2019,01,29,17,47,5.70
2019,01,29,17,48,5.70
2019,01,29,17,49,5.60
2019,01,29,17,50,5.60
2019,01,29,17,51,5.50
2019,01,29,17,52,5.50
2019,01,29,17,53,5.40
2019,01,29,17,54,5.40
2019,01,29,17,55,5.40
2019,01,29,17,56,5.30
2019,01,29,17,57,5.30
2019,01,29,17,58,5.30
2019,01,29,17,59,5.30
2019,01,29,18,00,5.30
2019,01,29,18,01,5.20
2019,01,29,18,02,5.20
2019,01,29,18,03,5.20
2019,01,29,18,04,5.20
2019,01,29,18,05,5.20
2019,01,29,18,06,5.20